BEIDOU-3 M13 (43622 NORAD) Tracking and Keplerian Element Data

This shows tracking and keplerian element data for the satellite.

Feedback or suggestion? Click here.




ElementValue
Catalog43622
NameBEIDOU-3 M13
Epoch Orbit53
Epoch Day291.68123516
Epoch Year2018
RAAN156.3908
Inclination54.9788
Eccentricity0.0004847
Argument of Perigee286.4847
Mean Anonmoly255.9003
Mean Motion1.86232046
Decay Rate2.4E-07
L11 43622U 18072A 18291.68123516 .00000024 00000-0 00000-0 0 9994
L22 43622 54.9788 156.3908 0004847 286.4847 255.9003 1.86232046 538

Live tracking and technical data element details for BEIDOU-3 M13 (NORAD 43622). BEIDOU-3 M13 can be tracked NOW for your location showing map with azimuth and elevation plus other details from your city location.

Track the satellite on the map from your city or location and see movement details for azimuth, elevation, latitude, longitude, range, height, and movement on the map or in text.







IsCatalogInMostPopularTable: catalog: 43622, numindb: 17
Update: records affected: 1



GetName: 43622 BEIDOU-3 M13

Hit Count: updated at: Thu, 15 Nov 2018 03:56:34 GMT